Location: Complexul Astronomic Baia Mare
(47.6577°N, 23.5639°E)
Time: 23:55:07
(UTC+03:00)

ISS - Pass Details

Date: 10 June 2017
Orbit: 401 x 408 km, 51.6° (Epoch: 28 June)

Event Time Altitude Azimuth Distance (km) Brightness Sun altitude
Rises 22:35:51 0° 284° (WNW) 2,338 1.0 -9.7°
Reaches altitude 10° 22:38:38 10° 259° (W) 1,471 -0.6 -10.0°
Maximum altitude 22:40:29 14° 225° (SW) 1,235 -1.5 -10.2°
Drops below altitude 10° 22:42:20 10° 190° (S) 1,463 -1.4 -10.4°
Enters shadow 22:42:40 - 186° (S) 1,544 -1.3 -10.4°
